Location: Cambridge (historical)
(38.6883°N, 119.0140°W)
Time: 16:54:52
(UTC+00:00)

ATLAS CENTAUR R/B - Pass Details

Date: 29 October 2020
Orbit: 478 x 667 km, 64.7° (Epoch: 16 November)

Event Time Altitude Azimuth Distance (km) Brightness Sun altitude
Rises 12:40:05 0° 188° (S) 2,700 4.8 -20.1°
Reaches altitude 10° 12:42:30 10° 178° (S) 1,779 4.0 -19.6°
Maximum altitude 12:46:02 31° 115° (ESE) 915 3.0 -18.9°
Drops below altitude 10° 12:49:25 10° 52° (NE) 1,708 4.5 -18.3°
Sets 12:51:41 0° 42° (NE) 2,575 5.3 -17.8°
